Time,TemperatureF,DewpointF,PressureIn,WindDirection,WindDirectionDegrees,WindSpeedMPH,WindSpeedGustMPH,Humidity,HourlyPrecipIn,Conditions,Clouds,dailyrainin,SolarRadiationWatts/m^2,SoftwareType,DateUTC
2013-08-07 00:01:00,78.0,73.0,-100.00,SSE,158,1.0,4.0,85,0.00,,,0.01,0.000000,,2013-08-07 04:01:00,
2013-08-07 00:33:00,77.0,74.0,-100.00,ENE,72,0.0,3.0,90,0.00,,,0.01,0.000000,,2013-08-07 04:33:00,
2013-08-07 00:43:00,77.0,74.0,-100.00,ENE,72,0.0,3.0,90,0.00,,,0.01,0.000000,,2013-08-07 04:43:00,
2013-08-07 00:52:00,77.0,74.0,-100.00,ENE,72,0.0,3.0,90,0.00,,,0.01,0.000000,,2013-08-07 04:52:00,
2013-08-07 01:02:00,77.0,74.0,-100.00,ENE,72,0.0,3.0,90,0.00,,,0.01,0.000000,,2013-08-07 05:02:00,
2013-08-07 01:32:00,76.0,73.0,-100.00,NNW,340,0.0,2.0,91,0.00,,,0.01,0.000000,,2013-08-07 05:32:00,
2013-08-07 01:43:00,76.0,73.0,-100.00,NNW,340,0.0,2.0,91,0.00,,,0.01,0.000000,,2013-08-07 05:43:00,
2013-08-07 01:52:00,76.0,73.0,-100.00,NNW,340,0.0,2.0,91,0.00,,,0.01,0.000000,,2013-08-07 05:52:00,
2013-08-07 02:02:00,76.0,73.0,-100.00,NNW,340,0.0,2.0,91,0.00,,,0.01,0.000000,,2013-08-07 06:02:00,
2013-08-07 02:22:00,75.0,73.0,-100.00,ENE,60,0.0,1.0,93,0.00,,,0.01,0.000000,,2013-08-07 06:22:00,
2013-08-07 02:32:00,75.0,73.0,-100.00,ENE,60,0.0,1.0,93,0.00,,,0.01,0.000000,,2013-08-07 06:32:00,
2013-08-07 02:43:00,75.0,73.0,-100.00,ENE,60,0.0,1.0,93,0.00,,,0.01,0.000000,,2013-08-07 06:43:00,
2013-08-07 02:52:00,75.0,73.0,-100.00,ENE,60,0.0,1.0,93,0.00,,,0.01,0.000000,,2013-08-07 06:52:00,
2013-08-07 03:01:00,75.0,73.0,-100.00,ENE,60,0.0,1.0,93,0.00,,,0.01,0.000000,,2013-08-07 07:01:00,
2013-08-07 03:22:00,74.0,72.0,-100.00,ENE,78,0.0,0.0,94,0.00,,,-99.99,0.000000,,2013-08-07 07:22:00,
2013-08-07 03:33:00,74.0,72.0,-100.00,ENE,78,0.0,0.0,94,0.00,,,-99.99,0.000000,,2013-08-07 07:33:00,
2013-08-07 03:43:00,74.0,72.0,-100.00,ENE,78,0.0,0.0,94,0.00,,,-99.99,0.000000,,2013-08-07 07:43:00,
2013-08-07 03:53:00,74.0,72.0,-100.00,ENE,78,0.0,0.0,94,0.00,,,-99.99,0.000000,,2013-08-07 07:53:00,
2013-08-07 04:02:00,74.0,72.0,-100.00,ENE,78,0.0,0.0,94,0.00,,,-99.99,0.000000,,2013-08-07 08:02:00,
2013-08-07 04:22:00,73.0,71.0,-100.00,North,355,0.0,0.0,94,0.00,,,0.01,0.000000,,2013-08-07 08:22:00,
2013-08-07 04:32:00,73.0,71.0,-100.00,North,355,0.0,0.0,94,0.00,,,0.01,0.000000,,2013-08-07 08:32:00,
2013-08-07 04:44:00,73.0,71.0,-100.00,North,355,0.0,0.0,94,0.00,,,0.01,0.000000,,2013-08-07 08:44:00,
2013-08-07 04:53:00,73.0,71.0,-100.00,North,355,0.0,0.0,94,0.00,,,0.01,0.000000,,2013-08-07 08:53:00,
2013-08-07 05:02:00,73.0,71.0,-100.00,North,355,0.0,0.0,94,0.00,,,0.01,0.000000,,2013-08-07 09:02:00,
2013-08-07 05:32:00,73.0,71.0,-100.00,ESE,103,1.0,1.0,94,0.00,,,0.01,0.000000,,2013-08-07 09:32:00,
2013-08-07 05:43:00,73.0,71.0,-100.00,ESE,103,1.0,1.0,94,0.00,,,0.01,0.000000,,2013-08-07 09:43:00,
2013-08-07 05:54:00,73.0,71.0,-100.00,ESE,103,1.0,1.0,94,0.00,,,0.01,0.000000,,2013-08-07 09:54:00,
2013-08-07 06:01:00,73.0,71.0,-100.00,ESE,103,1.0,1.0,94,0.00,,,0.01,0.000000,,2013-08-07 10:01:00,
2013-08-07 06:32:00,74.0,72.0,-100.00,ENE,60,0.0,3.0,95,0.00,,,0.01,0.000000,,2013-08-07 10:32:00,
2013-08-07 06:43:00,74.0,72.0,-100.00,ENE,60,0.0,3.0,95,0.00,,,0.01,0.000000,,2013-08-07 10:43:00,
2013-08-07 06:52:00,74.0,72.0,-100.00,ENE,60,0.0,3.0,95,0.00,,,0.01,0.000000,,2013-08-07 10:52:00,
2013-08-07 07:01:00,74.0,72.0,-100.00,ENE,60,0.0,3.0,95,0.00,,,0.01,0.000000,,2013-08-07 11:01:00,
2013-08-07 07:32:00,73.0,71.0,-100.00,NNW,347,0.0,0.0,95,0.00,,,0.01,3.000000,,2013-08-07 11:32:00,
2013-08-07 07:43:00,73.0,71.0,-100.00,NNW,347,0.0,0.0,95,0.00,,,0.01,3.000000,,2013-08-07 11:43:00,
2013-08-07 07:53:00,73.0,71.0,-100.00,NNW,347,0.0,0.0,95,0.00,,,0.01,3.000000,,2013-08-07 11:53:00,
2013-08-07 08:02:00,73.0,71.0,-100.00,NNW,347,0.0,0.0,95,0.00,,,0.01,3.000000,,2013-08-07 12:02:00,
2013-08-07 08:33:00,78.0,76.0,-100.00,East,86,2.0,4.0,94,0.00,,,0.01,86.000000,,2013-08-07 12:33:00,
2013-08-07 08:43:00,78.0,76.0,-100.00,East,86,2.0,4.0,94,0.00,,,0.01,86.000000,,2013-08-07 12:43:00,
2013-08-07 08:52:00,78.0,76.0,-100.00,East,86,2.0,4.0,94,0.00,,,0.01,86.000000,,2013-08-07 12:52:00,
2013-08-07 09:02:00,78.0,76.0,-100.00,East,86,2.0,4.0,94,0.00,,,0.01,86.000000,,2013-08-07 13:02:00,
2013-08-07 09:32:00,83.0,75.0,-100.00,ESE,102,4.0,8.0,76,0.00,,,0.01,236.000000,,2013-08-07 13:32:00,
2013-08-07 09:44:00,83.0,75.0,-100.00,ESE,102,4.0,8.0,76,0.00,,,0.01,236.000000,,2013-08-07 13:44:00,
2013-08-07 09:53:00,83.0,75.0,-100.00,ESE,102,4.0,8.0,76,0.00,,,0.01,236.000000,,2013-08-07 13:53:00,
2013-08-07 10:02:00,83.0,75.0,-100.00,ESE,102,4.0,8.0,76,0.00,,,0.01,236.000000,,2013-08-07 14:02:00,
2013-08-07 10:33:00,84.0,72.0,-100.00,East,93,4.0,10.0,68,0.00,,,0.01,333.000000,,2013-08-07 14:33:00,
2013-08-07 10:43:00,84.0,72.0,-100.00,East,93,4.0,10.0,68,0.00,,,0.01,333.000000,,2013-08-07 14:43:00,
2013-08-07 10:52:00,84.0,72.0,-100.00,East,93,4.0,10.0,68,0.00,,,0.01,333.000000,,2013-08-07 14:52:00,
2013-08-07 11:02:00,84.0,72.0,-100.00,East,93,4.0,10.0,68,0.00,,,0.01,333.000000,,2013-08-07 15:02:00,
2013-08-07 11:22:00,86.0,72.0,-100.00,East,99,5.0,9.0,63,0.00,,,0.01,530.000000,,2013-08-07 15:22:00,
2013-08-07 11:33:00,86.0,72.0,-100.00,East,99,5.0,9.0,63,0.00,,,0.01,530.000000,,2013-08-07 15:33:00,
2013-08-07 11:43:00,86.0,72.0,-100.00,East,99,5.0,9.0,63,0.00,,,0.01,530.000000,,2013-08-07 15:43:00,
2013-08-07 11:53:00,86.0,72.0,-100.00,East,99,5.0,9.0,63,0.00,,,0.01,530.000000,,2013-08-07 15:53:00,
2013-08-07 12:02:00,86.0,72.0,-100.00,East,99,5.0,9.0,63,0.00,,,0.01,530.000000,,2013-08-07 16:02:00,
2013-08-07 12:33:00,88.0,72.0,-100.00,ESE,108,3.0,9.0,59,0.00,,,0.01,649.000000,,2013-08-07 16:33:00,
2013-08-07 12:43:00,88.0,72.0,-100.00,ESE,108,3.0,9.0,59,0.00,,,0.01,649.000000,,2013-08-07 16:43:00,
2013-08-07 12:53:00,88.0,72.0,-100.00,ESE,108,3.0,9.0,59,0.00,,,0.01,649.000000,,2013-08-07 16:53:00,
2013-08-07 13:01:00,88.0,72.0,-100.00,ESE,108,3.0,9.0,59,0.00,,,0.01,649.000000,,2013-08-07 17:01:00,
2013-08-07 13:33:00,87.0,70.0,-100.00,ENE,75,5.0,11.0,57,0.00,,,0.01,806.000000,,2013-08-07 17:33:00,
2013-08-07 13:43:00,87.0,70.0,-100.00,ENE,75,5.0,11.0,57,0.00,,,0.01,806.000000,,2013-08-07 17:43:00,
2013-08-07 13:52:00,87.0,70.0,-100.00,ENE,75,5.0,11.0,57,0.00,,,0.01,806.000000,,2013-08-07 17:52:00,
2013-08-07 14:02:00,87.0,70.0,-100.00,ENE,75,5.0,11.0,57,0.00,,,0.01,806.000000,,2013-08-07 18:02:00,
2013-08-07 14:32:00,88.0,70.0,-100.00,ENE,73,5.0,10.0,55,0.00,,,0.01,950.000000,,2013-08-07 18:32:00,
2013-08-07 14:43:00,88.0,70.0,-100.00,ENE,73,5.0,10.0,55,0.00,,,0.01,950.000000,,2013-08-07 18:43:00,
2013-08-07 14:52:00,88.0,70.0,-100.00,ENE,73,5.0,10.0,55,0.00,,,0.01,950.000000,,2013-08-07 18:52:00,
2013-08-07 15:01:00,88.0,70.0,-100.00,ENE,73,5.0,10.0,55,0.00,,,0.01,950.000000,,2013-08-07 19:01:00,
2013-08-07 15:32:00,88.0,72.0,-100.00,East,85,4.0,15.0,59,0.00,,,0.00,583.000000,,2013-08-07 19:32:00,
2013-08-07 15:44:00,88.0,72.0,-100.00,East,85,4.0,15.0,59,0.00,,,0.00,583.000000,,2013-08-07 19:44:00,
2013-08-07 15:53:00,88.0,72.0,-100.00,East,85,4.0,15.0,59,0.00,,,0.00,583.000000,,2013-08-07 19:53:00,
2013-08-07 16:02:00,88.0,72.0,-100.00,East,85,4.0,15.0,59,0.00,,,0.00,583.000000,,2013-08-07 20:02:00,
2013-08-07 16:33:00,88.0,71.0,-100.00,ENE,75,5.0,11.0,58,0.00,,,0.00,772.000000,,2013-08-07 20:33:00,
2013-08-07 16:43:00,88.0,71.0,-100.00,ENE,75,5.0,11.0,58,0.00,,,0.00,772.000000,,2013-08-07 20:43:00,
2013-08-07 16:52:00,88.0,71.0,-100.00,ENE,75,5.0,11.0,58,0.00,,,0.00,772.000000,,2013-08-07 20:52:00,
2013-08-07 17:01:00,88.0,71.0,-100.00,ENE,75,5.0,11.0,58,0.00,,,0.00,772.000000,,2013-08-07 21:01:00,
2013-08-07 17:32:00,87.0,70.0,-100.00,ENE,67,5.0,11.0,58,0.00,,,0.00,649.000000,,2013-08-07 21:32:00,
2013-08-07 17:43:00,87.0,70.0,-100.00,ENE,67,5.0,11.0,58,0.00,,,0.00,649.000000,,2013-08-07 21:43:00,
2013-08-07 17:52:00,87.0,70.0,-100.00,ENE,67,5.0,11.0,58,0.00,,,0.00,649.000000,,2013-08-07 21:52:00,
2013-08-07 18:01:00,87.0,70.0,-100.00,ENE,67,5.0,11.0,58,0.00,,,0.00,649.000000,,2013-08-07 22:01:00,
2013-08-07 18:22:00,86.0,67.0,-100.00,East,87,4.0,11.0,54,0.00,,,0.00,404.000000,,2013-08-07 22:22:00,
2013-08-07 18:32:00,86.0,67.0,-100.00,East,87,4.0,11.0,54,0.00,,,0.00,404.000000,,2013-08-07 22:32:00,
2013-08-07 18:43:00,86.0,67.0,-100.00,East,87,4.0,11.0,54,0.00,,,0.00,404.000000,,2013-08-07 22:43:00,
2013-08-07 18:52:00,86.0,67.0,-100.00,East,87,4.0,11.0,54,0.00,,,0.00,404.000000,,2013-08-07 22:52:00,
2013-08-07 19:01:00,86.0,67.0,-100.00,East,87,4.0,11.0,54,0.00,,,0.00,404.000000,,2013-08-07 23:01:00,
2013-08-07 19:22:00,84.0,66.0,-100.00,East,92,5.0,10.0,55,0.00,,,0.00,254.000000,,2013-08-07 23:22:00,
2013-08-07 19:32:00,84.0,66.0,-100.00,East,92,5.0,10.0,55,0.00,,,0.00,254.000000,,2013-08-07 23:32:00,
2013-08-07 19:43:00,84.0,66.0,-100.00,East,92,5.0,10.0,55,0.00,,,0.00,254.000000,,2013-08-07 23:43:00,
2013-08-07 19:52:00,84.0,66.0,-100.00,East,92,5.0,10.0,55,0.00,,,0.00,254.000000,,2013-08-07 23:52:00,
2013-08-07 20:01:00,84.0,66.0,-100.00,East,92,5.0,10.0,55,0.00,,,0.00,254.000000,,2013-08-08 00:01:00,
2013-08-07 20:22:00,80.0,67.0,-100.00,East,91,3.0,10.0,64,0.00,,,0.00,90.000000,,2013-08-08 00:22:00,
2013-08-07 20:32:00,80.0,67.0,-100.00,East,91,3.0,10.0,64,0.00,,,0.00,90.000000,,2013-08-08 00:32:00,
2013-08-07 20:43:00,80.0,67.0,-100.00,East,91,3.0,10.0,64,0.00,,,0.00,90.000000,,2013-08-08 00:43:00,
2013-08-07 20:52:00,80.0,67.0,-100.00,East,91,3.0,10.0,64,0.00,,,0.00,90.000000,,2013-08-08 00:52:00,
2013-08-07 21:02:00,80.0,67.0,-100.00,East,91,3.0,10.0,64,0.00,,,0.00,90.000000,,2013-08-08 01:02:00,
2013-08-07 21:32:00,76.0,69.0,-100.00,SE,134,1.0,5.0,80,0.00,,,-99.99,2.000000,,2013-08-08 01:32:00,
2013-08-07 21:43:00,76.0,69.0,-100.00,SE,134,1.0,5.0,80,0.00,,,-99.99,2.000000,,2013-08-08 01:43:00,
2013-08-07 21:52:00,76.0,69.0,-100.00,SE,134,1.0,5.0,80,0.00,,,-99.99,2.000000,,2013-08-08 01:52:00,
2013-08-07 22:02:00,76.0,69.0,-100.00,SE,134,1.0,5.0,80,0.00,,,-99.99,2.000000,,2013-08-08 02:02:00,
2013-08-07 22:32:00,73.0,69.0,-100.00,NNE,22,0.0,2.0,87,0.00,,,0.00,0.000000,,2013-08-08 02:32:00,
2013-08-07 22:43:00,73.0,69.0,-100.00,NNE,22,0.0,2.0,87,0.00,,,0.00,0.000000,,2013-08-08 02:43:00,
2013-08-07 22:52:00,73.0,69.0,-100.00,NNE,22,0.0,2.0,87,0.00,,,0.00,0.000000,,2013-08-08 02:52:00,
2013-08-07 23:02:00,73.0,69.0,-100.00,NNE,22,0.0,2.0,87,0.00,,,0.00,0.000000,,2013-08-08 03:02:00,
2013-08-07 23:32:00,72.0,69.0,-100.00,NNW,330,1.0,2.0,90,0.00,,,0.00,0.000000,,2013-08-08 03:32:00,
2013-08-07 23:43:00,72.0,69.0,-100.00,NNW,330,1.0,2.0,90,0.00,,,0.00,0.000000,,2013-08-08 03:43:00,
2013-08-07 23:52:00,72.0,69.0,-100.00,NNW,330,1.0,2.0,90,0.00,,,0.00,0.000000,,2013-08-08 03:52:00,